Regional Weather Roundup
Issued by NWS

Home | Current Version | Previous Version | Text Only | Print | Product List | Glossary On
Versions: 1 2 3 4 5 6 7 8 9 10 11 12 13 14 15 16 17 18 19 20 21 22 23 24 25 26 27 28 29 30 31 32 33 34 35 36 37 38 39 40 41 42 43 44 45 46 47 48 49 50
000
ASUS44 KFWD 301515
RWRTX
NORTH TEXAS HOURLY WEATHER ROUNDUP
NATIONAL WEATHER SERVICE FORT WORTH TX
1000 AM CDT SAT MAY 30 2015

NOTE: "FAIR" INDICATES FEW OR NO CLOUDS BELOW 12,000 FEET WITH NO
SIGNIFICANT WEATHER AND/OR OBSTRUCTIONS TO VISIBILITY.

TXZ118-119-301600-
DALLAS/FORT WORTH METROPLEX

CITY           SKY/WX    TMP DP  RH WIND       PRES   REMARKS
DFW AIRPORT    CLOUDY    66  65  96 NE12      30.02F
DALLAS LOVE    CLOUDY    69  65  86 E16G22    30.01F
FTW MEACHAM      N/A    N/A N/A N/A MISG      30.02S
DAL-EXECUTIVE  CLOUDY    67  65  93 NE12      30.01F
FTW-ALLIANCE   LGT RAIN  67  67 100 E7        30.04R
FTW-NAS-JRB    CLOUDY    69  66  90 N7        30.04R
FTW-SPINKS     PTSUNNY   68  64  88 N5        30.04S
ARLINGTON      CLOUDY    70  64  81 NE13      30.01F
GRAND PRAIRIE  SUNNY     68  68 100 NE14      30.03F
ADDISON        CLOUDY    68  64  88 NE12G17   30.03F
MESQUITE       CLOUDY    66  66 100 NE10      30.03F
LANCASTER      CLOUDY    66  64  92 E10       30.03F
$$

TXZ091>094-102>105-117-120-121-131>134-301600-
NORTH CENTRAL TEXAS

CITY           SKY/WX    TMP DP  RH WIND       PRES   REMARKS
SHRMAN/DENISON LGT RAIN  67  67 100 CALM      30.08F
GAINESVILLE    LGT RAIN  69  67  93 CALM      30.09R
BOWIE          HVY RAIN  65  65 100 NW15      30.13R
BRIDGEPORT     DRIZZLE   67  67 100 CALM      30.10R
DECATUR        CLOUDY    67  66  97 NE5       30.09R
DENTON         LGT RAIN  68  66  93 N8        30.05S
MCKINNEY       LGT RAIN  67  66  97 E6        30.06S
GREENVILLE     CLOUDY    68  64  88 CALM      30.10F
ROCKWALL       CLOUDY    67  66  98 E7        30.05F
TERRELL        LGT RAIN  67  66  97 E8        30.07F
WAXAHACHIE     CLOUDY    67  67 100 NE9       30.04S
CLEBURNE       CLOUDY    68  68 100 E8        30.07R
GRANBURY       CLOUDY    70  66  88 NW5       30.07R
$$

TXZ083>090-098>101-113>116-127>130-139>142-154-155-301600-
WESTERN NORTH TEXAS

CITY           SKY/WX    TMP DP  RH WIND       PRES   REMARKS
WICHITA FALLS  LGT RAIN  63  61  93 N9        30.14S
WF-KICKAPOO    LGT RAIN  64  60  88 N15       30.16R
VERNON         CLOUDY    66  53  62 N20G29    30.18R
ABILENE        MOSUNNY   70  62  76 NW16      30.16R
ABILENE-DYESS  PTSUNNY   69  60  72 NW10      30.16R
BRECKENRIDGE   MOSUNNY   72  65  77 NW10      30.11S
GRAHAM         RAIN      67  65  92 NW17G24   30.12R
MINERAL WELLS  LGT RAIN  69  66  90 NW7       30.07R
STEPHENVILLE   MOSUNNY   70  64  81 NW5       30.09R
COMANCHE       CLOUDY    69  66  90 N8        30.10R
BROWNWOOD      PTSUNNY   72  64  78 N7        30.11R
COLEMAN        SUNNY     73  64  73 N13       30.12R
BRADY          SUNNY     72  63  73 NW10      30.12S
$$

TXZ143>147-156>162-174-175-301600-
CENTRAL TEXAS

CITY           SKY/WX    TMP DP  RH WIND       PRES   REMARKS
WACO           PTSUNNY   69  65  86 NE10      30.04S
WACO-TSTC      SUNNY     70  66  88 NE12G17   30.04
WACO-MCGREGOR  PTSUNNY   70  64  83 NE12      30.05R
HILLSBORO      CLOUDY    66  64  90 E9        30.04R
CORSICANA      LGT RAIN  68  64  87 NE9       30.05F
MEXIA          CLOUDY    66  65  96 NE6G20    30.04F
HEARNE         PTSUNNY   75  67  75 NE8       30.06F
CAMERON        CLOUDY    73  66  78 E10G17    30.01F
TEMPLE         PTSUNNY   72  61  68 E3        30.03R
KILLEEN        PTSUNNY   71  64  79 NW7       30.07R
KILLEEN-SKYLRK PTSUNNY   70  61  73 N7        30.06R
FORT HOOD      PTSUNNY   72  65  79 N8        30.06R
GATESVILLE     MOSUNNY   72  64  78 CALM      30.10R
HAMILTON       MOSUNNY   71  66  85 NW9       30.09R
LAMPASAS       MOSUNNY   73  66  80 W3        30.08R
$$

TXZ095>097-106>112-122>126-135>138-148>153-164>167-301600-
EAST TEXAS

CITY           SKY/WX    TMP DP  RH WIND       PRES   REMARKS
PARIS          CLOUDY    68  63  83 W8        30.08R
SULPHUR SPRNGS TSTM      68  66  95 CALM      30.12S
MOUNT PLEASANT CLOUDY    70  70  99 SW7       30.12R
GILMER         TSTM     N/A N/A N/A NW7G20    30.10R
MINEOLA        HVY RAIN  66  66 100 NW5       30.12R
TYLER          RAIN      67  32  27 N15       30.07F
LONGVIEW       TSTM      70  67  90 W13       30.08R
MARSHALL       CLOUDY    73  70  88 W7        30.09S
ATHENS         RAIN      64  63  94 N14G20    30.04F
PALESTINE      CLOUDY    67  66  96 NW6       30.08F
JACKSONVILLE   CLOUDY    69  65  86 NW12      30.11F
NACOGDOCHES    CLOUDY   N/A N/A N/A NW26G33   30.09R
LUFKIN         CLOUDY    78  72  81 W9        30.08R
$$

SUPPLEMENTAL OBSERVATIONS (CENTRAL)

CITY           SKY/WX    TMP DP  RH WIND       PRES   REMARKS
LAKE TEXOMA      N/A     68  64  88 SW5         N/A
CADDO GRASSLND   N/A     66  64  94 SW3         N/A
PAT MAYSE LAKE   N/A     66  64  94 SW6         N/A
GREENVILLE       N/A     66  63  88 SW5G14      N/A
ATHENS           N/A     64  59  82 N5G14       N/A
LAKE LIMESTONE   N/A     72  64  78 E12         N/A
MCGREGOR         N/A     70  64  83 NE9         N/A
TEMPLE           N/A     73  64  73 NE8G26      N/A
$$

SUPPLEMENTAL OBSERVATIONS (WEST)

CITY           SKY/WX    TMP DP  RH WIND       PRES   REMARKS
MILLERS CREEK    N/A     64  61  88 N13G22      N/A
POSSUM KINGDOM   N/A     70  64  83 NW10        N/A
LBJ GRASSLAND    N/A     68  64  88 NW6         N/A
GRANBURY         N/A     70  64  83 NW6         N/A
COMANCHE         N/A     70  63  78 N8G16       N/A
HAMBY            N/A     72  63  73 NW12        N/A
IVIE RESERVOIR   N/A     73  63  68 W7          N/A
COLORADO BEND    N/A     73  64  73 N5          N/A
$$

SUPPLEMENTAL OBSERVATIONS (EAST)

CITY           SKY/WX    TMP DP  RH WIND       PRES   REMARKS
CLARKSVILLE      N/A     70  68  94 CALM        N/A
CADDO LAKE       N/A     70  68  94 W2          N/A
GILMER           N/A     66  63  88 NW6G16      N/A
HENDERSON        N/A     66  63  88 W6G37       N/A
LUFKIN           N/A     79  72  78 MISG        N/A
N SABINE NF      N/A     81  73  78 MISG        N/A
S SABINE NF      N/A     81  73  78 CALM        N/A
$$

SUPPLEMENTAL OBSERVATIONS ARE A COLLECTION OF AUTOMATED INSTRUMENTS
THAT ARE MAINTAINED BY A VARIETY OF FEDERAL AND STATE AGENCIES.
CERTAIN ELEMENTS...SUCH AS HUMIDITY VALUES AND SUSTAINED WIND
SPEEDS...MAY BE APPROXIMATED.



USA.gov is the U.S. government's official web portal to all federal, state and local government web resources and services.